map of KJWY home
KJWY - Airport
Location
City:  Midlothian/Waxahachie, Texas, United States
Name:Mid-Way Regional
ICAO:KJWY
FAA LID:JWY

Details
Type:Airport (Airfield)
Use:Public/Civil
Latitude:3227'30"N (32.458293)
Longitude:9654'45"W (-96.912525)
Datum:WGS 1984
Elevation:727 ft (222 m)
Variation:3.24E (WMM2015v2 magnetic declination)
-0.10 annual change
Runways:1
Longest:6500 × 100 ft (1981 × 30.5 m), paved

Time
Time Zone:UTC-6 (DST-5)
Local Time:

Weather
METAR:KJWY 041415Z AUTO 22006KT 2 1/2SM BR SCT005 17/17 A2989 RMK AO2 T01660166

Related Locations
Nearby:
Farthest:RRG: 10939 mi / 17605 km
Plaine Corail [Sir Gatan Duval Airport (Plaine Corail Airport)], Rodrigues Island, MU

Find:

   beyond  
but within

Other Information
Maps:
NOTAMs:
Links:
Sources:

  
  • flag of United States
  • flag of Texas
  

Sectional Chart

Flight Planning
at skyvector.com

Satellite Image

Google Maps Satellite view

 

Copyright © 2004-2019 Karl L. Swartz. All rights reserved.
The Great Circle Mapper name and logo are trademarks of the Great Circle Mapper.
All other trademarks mentioned herein belong to their respective owners.
Please see credits for attibutions and further copyright information.

  Follow gcmap on Facebook Follow gcmap on Twitter GCmap on LinkedIn

hCard Microformat

Geo Microformat